Theta_e
313 313 314 312 314 302 308 308 303 306 312 309 305 307 308 307 304 301 308 306 308 313 313 315 318 318 317 319 321 322 324 325 332 333 332 332 333 337 340 342 349 353 355 357 356 357 358 360 359 358 361 362 363 364 366 368 369 369 369 368 367 367 366
313 316 315 314 313 314 310 303 306 312 314 311 307 300 304 302 299 302 306 303 305 304 302 314 315 315 316 317 318 320 324 326 326 331 331 330 333 335 334 341 352 353 355 357 357 357 359 360 360 360 362 363 364 365 367 368 368 368 369 369 368 369 369
312 315 314 311 313 315 310 308 314 306 301 300 306 304 297 298 297 300 304 306 306 307 307 311 312 313 314 316 319 319 321 323 324 325 328 333 333 334 337 341 350 351 353 356 358 357 358 361 363 362 362 362 363 365 367 367 367 368 368 368 368 368 369
311 312 310 302 306 312 313 315 310 312 309 304 302 304 305 305 299 299 300 304 302 310 311 313 313 315 316 316 317 318 319 321 322 324 325 328 333 333 334 341 347 351 352 355 356 357 357 359 362 362 361 362 361 364 366 366 367 369 369 368 369 368 368
311 304 308 305 306 304 305 307 307 308 307 311 309 308 304 302 301 301 301 299 304 310 314 314 316 317 317 317 318 320 320 322 324 325 326 328 334 336 338 341 346 349 352 353 356 357 357 359 362 362 361 361 361 362 364 364 365 366 366 367 368 368 368
305 306 311 310 310 309 307 306 305 307 304 303 300 299 308 305 302 298 300 301 310 313 317 316 316 319 319 319 320 319 321 321 325 326 328 331 334 339 340 340 344 348 352 353 355 357 358 358 359 360 360 360 360 360 362 362 363 363 364 365 368 369 368
306 309 312 314 314 313 310 309 307 310 308 307 303 296 302 305 305 306 306 303 307 316 319 319 318 319 319 321 321 320 320 322 323 325 326 330 334 336 337 340 340 343 351 353 354 356 357 357 358 359 360 359 359 359 360 361 360 362 362 363 366 369 367
311 313 314 314 314 312 309 309 310 309 306 307 306 306 308 305 305 302 302 301 307 315 321 319 318 321 319 323 321 322 321 322 323 324 326 331 333 337 338 340 339 341 345 354 357 357 358 358 359 359 359 360 359 358 359 359 358 360 360 362 364 368 368
305 307 310 309 312 311 308 307 309 310 310 310 310 310 311 305 306 305 302 298 304 315 319 319 318 317 317 318 319 321 321 323 323 325 327 332 338 338 337 341 342 343 345 353 359 359 362 361 356 359 359 359 358 358 359 358 358 359 360 360 363 366 366
296 296 297 299 302 305 308 310 309 310 309 308 307 303 306 300 309 310 305 304 313 315 319 317 317 317 318 318 319 319 322 324 323 324 343 348 349 350 347 347 346 346 355 360 362 363 364 358 355 361 362 358 358 358 358 359 358 359 359 357 361 364 364
303 307 313 311 311 308 304 307 309 308 309 310 310 308 305 302 307 307 310 311 311 313 314 316 316 317 317 317 319 319 320 323 330 339 342 340 342 348 343 346 346 353 358 358 360 362 357 356 356 357 357 357 357 359 359 358 359 359 360 359 362 363 364
309 311 312 310 311 308 307 307 307 309 309 309 308 305 303 312 307 300 311 315 310 312 314 315 317 317 319 318 320 321 322 323 326 334 333 340 330 336 345 347 348 348 351 354 358 360 357 355 357 356 356 356 358 359 358 358 358 358 359 360 361 363 365
309 311 310 310 309 309 309 308 308 308 309 308 306 307 309 311 306 304 312 315 312 314 314 315 317 319 320 318 320 321 324 327 331 334 333 327 325 340 345 350 351 351 350 354 356 357 356 354 355 356 355 356 360 361 359 361 357 357 361 362 363 363 365
308 309 310 310 308 308 309 309 309 309 309 308 308 308 309 310 312 312 314 315 312 314 316 316 319 321 320 320 322 324 325 322 328 327 325 323 327 333 336 345 351 356 355 356 357 358 360 357 358 355 356 359 357 356 357 358 359 359 362 365 365 364 364
305 307 309 309 308 307 306 308 309 309 309 309 310 309 309 311 310 311 311 314 313 316 320 320 321 322 321 322 319 319 324 324 322 322 321 325 326 327 333 344 344 351 353 357 359 359 361 360 358 357 358 358 356 355 356 355 358 359 359 367 365 364 366
301 305 305 306 307 307 307 306 308 308 308 307 309 308 311 309 309 311 310 310 311 318 321 320 321 322 321 320 321 321 321 321 322 322 322 324 327 327 329 333 343 347 350 353 359 359 358 359 359 358 361 357 356 354 355 355 356 357 358 361 362 367 369
299 304 305 305 306 305 302 304 306 309 310 310 311 312 312 312 312 309 307 309 315 319 321 319 319 319 320 320 320 321 322 326 323 324 323 323 324 326 332 337 341 339 338 342 357 357 358 357 357 357 358 356 357 357 358 358 358 356 356 357 363 368 368
299 303 304 305 302 295 297 310 312 311 309 309 308 308 310 313 313 312 314 315 318 318 318 317 319 319 320 321 324 324 325 326 326 324 324 324 325 327 329 330 335 344 348 345 341 353 360 359 356 356 358 356 358 357 355 358 358 360 361 359 364 365 368
298 303 303 299 293 295 309 312 313 313 312 312 310 311 312 313 314 313 314 315 317 319 319 319 321 323 323 323 323 323 323 325 324 324 323 325 326 328 329 331 331 342 356 358 353 349 349 352 356 356 355 355 358 358 357 356 357 363 361 362 366 366 366
300 299 299 291 294 306 309 310 312 314 313 312 311 309 311 313 313 314 313 315 316 318 319 319 322 323 322 323 326 326 324 324 323 322 322 324 325 326 332 354 367 364 355 358 355 357 354 350 351 353 355 356 355 356 356 354 356 358 362 364 364 366 367
294 297 298 298 306 304 306 306 309 311 310 310 308 303 308 313 314 314 314 315 316 316 317 319 319 321 320 320 321 322 322 324 323 324 325 327 330 329 350 352 356 368 366 362 361 367 364 357 350 350 351 355 356 355 354 352 355 355 357 360 360 366 366
299 296 295 297 297 295 302 309 316 319 320 320 320 313 309 314 315 316 315 315 316 317 317 318 319 319 317 314 317 322 323 324 325 328 327 328 329 329 342 360 355 361 361 362 366 364 362 363 357 353 352 354 357 357 355 353 353 354 354 357 362 366 367
297 295 293 294 294 299 307 310 315 317 318 318 319 311 307 317 317 316 316 314 316 316 316 317 319 315 311 312 319 322 323 325 326 325 327 329 329 344 357 355 353 357 365 366 365 365 366 363 361 358 355 353 354 355 356 353 353 355 357 359 361 362 367
296 295 293 293 299 300 307 313 315 316 318 318 313 300 301 326 322 326 326 325 323 328 336 335 327 316 311 313 319 322 323 324 326 327 333 341 352 354 356 354 358 363 365 361 364 360 355 363 363 359 353 352 355 355 355 353 352 354 359 362 365 366 368
293 293 295 297 300 306 309 314 315 316 315 312 304 296 312 323 326 328 327 325 329 333 334 334 323 324 324 326 326 325 333 345 350 354 356 357 357 355 353 358 356 359 362 362 361 365 368 364 359 357 353 354 359 360 361 359 357 357 362 365 367 368 368
292 293 292 294 299 306 309 312 315 316 309 300 302 319 326 323 323 327 328 328 330 331 330 333 334 335 338 338 334 336 338 338 352 351 350 350 351 352 356 353 355 360 357 361 358 356 363 365 365 358 358 359 359 360 359 358 361 360 364 366 367 369 369
295 295 292 290 287 302 308 308 310 312 305 310 321 324 322 321 320 325 327 327 332 330 330 332 334 335 335 337 340 344 343 348 350 351 352 352 352 354 354 357 356 355 358 357 357 360 360 360 360 362 360 358 358 359 358 360 361 363 364 364 367 369 369
291 291 290 291 300 307 308 307 303 310 313 317 320 318 318 322 320 325 325 331 332 332 331 333 334 336 336 337 339 345 348 348 349 350 353 355 355 355 353 355 355 356 358 357 358 361 364 362 361 362 361 358 358 358 360 364 363 363 366 367 370 368 368
297 295 298 304 311 312 314 314 313 313 317 319 318 320 319 319 320 327 327 328 330 331 333 334 335 335 338 338 338 342 345 345 345 347 349 352 354 354 353 353 355 356 356 356 357 359 363 366 364 364 363 360 360 362 367 369 366 366 367 368 368 367 366
305 306 306 308 310 311 313 313 315 315 317 319 321 321 321 324 325 328 328 330 330 332 333 333 334 336 338 340 341 343 344 344 347 350 351 353 354 353 352 353 353 354 354 354 354 354 357 360 362 364 366 367 364 363 366 367 367 367 367 366 364 364 364
297 292 306 307 308 310 310 311 313 315 316 317 320 321 324 325 325 328 330 331 332 331 334 334 335 334 335 338 340 343 344 343 345 346 349 351 351 351 352 352 352 353 352 351 351 351 351 355 358 360 363 364 364 364 365 366 368 367 365 364 362 363 363
297 298 304 307 308 309 310 310 311 311 313 314 316 320 324 326 328 328 330 333 331 332 330 334 335 336 337 337 340 341 340 340 342 345 347 348 349 351 350 350 353 353 352 351 351 351 350 353 355 356 357 358 361 363 365 366 368 368 366 363 361 363 363
300 304 305 305 307 307 308 309 311 312 311 315 321 324 326 326 326 328 330 333 333 333 332 335 335 335 337 338 340 340 340 342 342 343 345 347 347 348 349 351 351 351 350 349 350 350 350 353 354 354 355 358 360 362 364 367 369 366 364 363 366 365 365
295 296 300 304 298 299 304 308 309 311 316 321 321 323 324 326 327 328 328 330 332 333 334 335 335 335 336 339 341 339 340 341 342 344 344 345 346 347 349 350 350 350 349 349 348 348 348 350 351 351 352 353 356 359 362 363 364 363 364 364 363 362 363
295 301 304 306 305 306 307 310 313 316 318 320 320 320 321 323 326 328 328 328 330 332 334 336 336 336 337 337 340 340 340 341 343 343 344 344 345 345 346 347 347 347 346 346 346 347 347 348 348 349 350 351 352 354 357 358 358 358 357 354 354 355 354
303 305 306 307 306 304 308 311 312 312 315 316 318 319 320 320 321 326 328 329 329 330 332 334 338 339 338 339 339 339 340 341 341 342 344 345 345 345 346 345 344 344 345 345 345 345 346 346 346 346 346 348 351 352 353 353 355 354 352 351 349 348 348
301 306 307 308 307 308 309 310 311 314 317 318 317 318 319 319 320 326 328 329 331 331 330 332 336 339 339 338 339 339 339 339 340 341 341 341 343 343 344 343 343 343 344 345 345 346 346 346 347 348 348 349 350 349 351 351 353 352 351 350 349 349 349
Wind_Speed
19 23 21 21 16 13 15 15 19 18 13 13 9 9 11 12 11 12 10 12 13 7 9 13 8 10 17 20 17 14 14 16 17 18 17 15 14 14 16 19 18 20 21 22 21 22 21 22 22 23 23 23 23 21 22 23 23 22 22 22 20 19 19
20 20 22 22 20 13 11 17 16 13 13 12 10 10 8 9 9 8 11 14 12 12 9 10 14 15 14 19 22 20 16 16 19 19 18 16 16 16 18 20 19 21 21 23 22 21 23 24 25 24 23 23 21 21 23 24 23 23 22 21 21 19 20
20 18 20 21 22 22 14 13 12 15 14 16 13 8 13 11 12 9 10 12 11 13 10 10 16 17 18 18 19 21 20 20 18 17 20 22 21 17 17 19 18 19 20 22 23 24 25 25 24 24 23 23 21 21 22 24 25 25 24 21 20 17 19
20 17 18 19 19 22 22 11 15 15 11 13 13 12 7 8 9 10 11 13 11 11 11 12 11 17 16 16 17 18 20 20 18 17 17 19 20 19 19 19 19 20 22 24 25 24 25 25 24 23 25 23 25 23 23 22 23 22 22 21 19 19 19
19 17 16 20 20 21 20 17 14 15 12 9 10 10 13 10 9 8 7 10 11 12 12 14 11 10 16 15 14 14 15 16 17 15 15 15 18 17 17 17 18 21 22 23 24 24 23 22 21 21 22 24 23 22 23 24 24 24 23 22 21 19 18
19 18 19 21 22 20 19 18 16 15 16 15 16 14 12 13 10 6 7 7 1 8 3 7 11 9 11 15 15 15 15 15 15 15 16 15 15 15 16 18 16 18 20 22 22 20 18 20 22 24 23 23 23 24 22 23 23 22 24 22 20 19 18
16 18 20 20 20 22 21 19 17 16 14 14 12 10 11 11 12 9 8 6 2 8 4 2 7 9 10 11 12 12 13 14 14 14 16 16 15 16 16 16 17 16 17 18 18 20 21 22 22 23 22 23 23 25 23 22 23 24 24 24 21 19 18
14 17 17 19 20 20 21 20 19 17 17 17 13 10 8 10 11 12 9 9 4 10 8 6 5 5 7 8 11 11 11 12 12 13 13 15 14 15 15 14 12 16 16 16 14 17 18 17 18 22 22 22 22 23 23 22 25 25 24 22 21 20 19
11 14 16 17 19 19 16 17 19 20 18 18 16 12 8 10 12 12 10 9 10 9 6 7 8 7 6 9 10 10 10 10 11 12 9 6 12 13 14 12 13 13 15 15 13 15 16 16 19 19 20 21 21 22 23 23 23 24 22 21 21 21 21
16 17 18 18 19 21 15 18 21 24 24 23 16 15 11 8 8 13 10 8 7 12 5 7 4 7 8 8 9 10 9 9 10 11 12 11 9 8 8 9 9 11 10 12 13 14 14 17 18 16 17 20 20 21 23 23 22 21 22 21 22 21 21
13 3 3 9 16 14 19 21 23 24 24 23 18 12 13 13 9 9 9 8 12 10 11 8 9 9 8 7 6 9 11 10 8 10 8 8 6 7 9 10 10 9 9 13 15 14 15 17 17 17 18 19 19 18 20 21 20 21 20 20 19 21 21
16 7 6 13 11 18 21 21 23 22 25 24 23 18 15 9 9 11 9 12 8 9 8 8 9 9 8 9 8 7 7 8 6 6 7 3 5 7 7 8 9 9 8 9 11 13 15 16 17 17 18 19 18 17 19 19 20 20 18 19 20 20 19
26 12 5 9 8 11 13 22 21 24 24 26 26 22 18 14 12 8 10 11 12 4 9 9 10 9 8 8 9 11 10 9 6 5 5 6 8 8 9 9 9 11 11 10 12 14 15 16 18 19 17 17 16 16 17 17 19 20 18 18 19 19 19
19 15 9 10 11 12 11 9 20 24 24 25 25 22 21 18 12 11 6 13 16 14 7 12 9 7 6 7 7 5 7 7 6 6 5 8 10 11 11 11 12 11 12 12 12 13 14 15 16 17 16 15 17 18 17 18 17 17 15 16 16 18 18
12 15 12 11 12 12 13 14 10 17 23 21 21 22 21 19 17 15 13 8 9 11 13 8 11 10 5 1 2 2 5 9 12 9 7 5 10 13 9 10 9 10 10 12 13 13 14 15 16 16 15 15 15 18 18 18 17 16 16 14 16 17 17
11 14 13 14 11 10 11 13 16 13 16 22 20 18 17 18 16 16 15 13 10 7 8 10 10 6 6 7 7 7 7 7 6 4 7 6 6 3 5 7 7 8 8 9 12 14 15 16 17 16 14 15 16 17 17 17 17 17 16 17 18 16 15
10 11 15 15 14 15 15 18 16 15 13 11 14 17 18 18 16 15 15 12 7 8 9 10 10 11 10 10 9 9 10 8 7 8 7 8 6 10 8 5 5 6 6 6 9 10 11 13 15 17 16 16 16 16 15 15 15 17 18 18 16 15 14
8 12 14 16 14 17 16 9 15 17 17 15 14 12 13 12 13 10 10 10 11 11 9 10 10 11 11 11 11 9 7 6 6 8 9 9 10 8 9 11 9 5 3 2 2 6 9 11 14 15 16 17 15 16 16 15 17 15 15 15 15 16 15
7 10 6 11 19 19 8 5 9 14 15 15 16 16 14 13 12 12 11 8 4 3 6 9 9 8 7 6 7 8 8 9 10 10 10 9 9 10 9 9 8 3 2 3 2 3 6 8 9 12 14 14 14 15 16 17 17 14 14 15 13 15 16
7 10 13 11 11 2 4 9 12 12 18 20 17 18 18 17 15 14 15 13 11 9 6 4 4 4 5 6 7 9 11 12 12 12 10 10 9 9 4 4 6 3 1 1 2 2 2 5 8 10 12 14 15 16 16 17 16 16 15 14 14 15 16
10 7 11 13 4 2 7 4 6 7 7 12 18 17 17 19 16 15 13 13 14 13 12 11 10 10 9 8 9 12 14 12 12 13 13 11 10 9 3 1 2 3 1 2 3 3 4 5 7 9 10 13 14 15 17 17 16 17 16 15 16 15 17
11 9 10 11 13 13 8 10 1 3 2 5 3 7 8 16 19 16 14 13 12 14 13 12 11 9 9 10 8 9 11 12 12 13 13 12 11 9 1 3 2 2 2 2 3 4 5 6 8 8 10 12 14 14 15 16 18 18 18 18 16 15 16
10 12 12 12 15 10 8 10 9 6 3 8 3 9 9 5 10 12 14 16 15 14 13 13 11 9 10 9 8 8 10 11 12 13 11 11 6 4 4 1 0 1 1 2 4 5 6 7 7 9 10 12 14 14 15 16 17 17 17 16 15 16 15
14 12 13 13 8 7 8 4 7 6 8 6 8 9 9 7 3 5 4 3 4 5 8 7 7 10 10 9 8 9 11 14 16 10 4 3 4 2 1 0 0 0 1 3 4 6 8 7 7 9 10 11 12 12 14 15 16 16 15 13 13 13 13
13 15 13 11 10 9 3 6 4 5 2 6 9 10 6 6 6 7 7 4 7 7 7 5 5 5 6 8 8 7 6 12 13 12 9 7 4 3 3 5 5 2 1 2 2 3 2 2 6 8 9 10 10 10 11 12 13 13 12 11 12 13 12
14 13 14 13 10 7 8 7 9 11 7 9 9 5 3 6 6 7 6 8 8 8 7 6 6 8 10 12 12 8 3 2 7 6 5 4 3 2 3 3 3 2 2 1 3 4 3 4 4 7 8 8 9 10 11 13 12 11 11 11 11 12 13
11 11 13 12 12 5 9 7 11 6 7 5 5 1 2 7 9 5 7 7 7 8 7 8 8 10 11 11 8 8 5 2 2 4 5 3 2 2 1 2 1 2 1 0 1 1 2 4 6 6 8 9 9 9 10 11 10 9 9 11 11 11 12
12 13 14 9 4 2 8 11 8 6 9 6 6 7 6 7 7 5 6 4 7 8 8 8 9 10 11 11 6 5 5 4 2 2 3 3 2 2 3 4 3 2 3 2 2 2 2 2 4 5 7 9 8 9 9 8 9 9 9 10 10 10 10
10 9 9 0 9 6 7 5 3 9 9 13 9 5 7 8 6 7 6 6 6 8 9 9 8 9 8 9 8 5 5 6 4 2 1 2 2 3 4 4 3 2 3 4 3 3 3 3 3 5 6 8 10 10 7 5 6 8 9 9 9 9 10
8 10 11 8 8 6 7 5 9 12 12 12 11 11 9 8 9 8 6 7 7 8 8 8 8 8 9 8 6 5 4 4 1 1 1 3 3 4 3 3 3 3 4 4 5 5 4 4 4 4 6 7 9 9 7 6 6 7 8 8 8 9 9
5 5 3 9 8 8 9 12 12 11 10 9 10 11 10 11 11 11 9 8 7 9 8 8 7 8 10 9 6 4 3 4 2 3 2 1 1 3 5 5 3 4 4 5 6 6 6 5 5 5 5 6 7 8 7 6 6 6 7 7 7 7 8
11 10 10 12 13 13 13 11 10 12 13 12 11 11 12 12 12 12 11 11 10 8 8 8 7 8 7 9 8 4 4 6 5 5 5 3 3 5 5 2 2 4 5 6 6 6 6 5 5 6 6 7 6 6 6 6 7 6 7 7 8 7 8
12 13 14 15 15 16 15 15 13 12 12 13 14 14 15 15 16 14 12 10 10 10 10 9 9 9 9 8 8 7 4 3 3 5 5 3 2 3 5 4 4 6 6 7 7 7 7 6 6 6 7 7 6 6 6 6 7 8 8 9 8 9 7
13 12 10 9 11 11 11 14 16 14 8 12 13 13 14 14 16 15 13 13 12 9 10 10 9 9 9 7 6 7 6 6 6 6 6 5 5 5 5 5 6 6 7 8 8 7 6 5 5 6 7 7 7 7 7 6 7 8 8 8 9 8 7
12 12 11 8 10 12 12 14 14 13 12 12 13 12 12 14 16 18 16 14 13 10 8 8 11 10 8 7 6 6 5 4 4 4 5 5 5 5 6 7 8 8 8 8 8 9 7 7 7 7 7 6 7 7 8 8 8 8 8 7 7 7 6
14 13 11 10 10 12 13 15 16 16 13 13 14 13 12 13 15 17 17 14 13 11 9 9 9 10 7 6 7 7 4 4 4 5 5 6 6 7 7 8 9 9 9 9 9 10 8 8 8 8 8 8 8 7 7 8 8 8 8 8 8 7 7
13 13 13 13 14 16 16 17 17 15 13 12 13 14 13 13 15 16 16 14 12 11 9 7 5 5 5 5 4 4 6 6 3 5 5 6 7 9 9 11 11 11 10 9 9 10 10 10 10 10 10 10 9 9 8 9 9 9 9 9 10 10 9
Wind_Direction
198 197 196 208 205 202 182 197 208 212 210 228 236 244 233 238 234 229 202 212 221 245 225 213 216 232 208 209 206 205 195 204 167 176 183 204 206 184 183 201 197 191 185 187 191 189 187 186 187 188 186 186 185 182 181 182 182 181 184 187 188 188 189
198 195 198 205 206 220 174 206 207 206 225 240 238 235 210 227 235 227 219 215 203 211 224 194 201 213 219 205 207 205 191 195 179 183 183 186 212 195 196 197 191 188 187 188 191 190 189 189 190 189 186 187 184 183 182 180 181 183 184 185 186 185 187
188 187 193 208 211 216 225 207 184 204 188 212 213 245 231 212 215 232 224 229 224 203 216 207 202 206 212 209 199 203 197 194 199 196 191 182 195 197 191 201 190 187 188 188 191 192 193 191 189 188 186 185 186 186 184 183 183 184 184 185 185 186 186
176 186 190 204 198 202 229 226 201 209 225 212 205 210 243 241 230 213 223 222 234 214 222 212 215 197 207 211 194 202 205 203 204 202 201 187 187 197 195 193 188 187 190 191 192 193 193 191 189 189 186 186 188 188 185 187 187 185 184 184 183 185 187
171 198 196 205 193 190 196 217 211 191 222 209 229 203 218 221 235 230 226 212 220 226 213 211 211 181 192 201 198 196 206 193 191 194 194 186 186 196 194 189 189 191 191 192 192 194 194 191 188 188 187 189 189 188 188 188 186 186 186 187 185 187 187
195 207 197 207 202 197 197 202 209 202 195 202 202 215 200 224 230 231 237 247 85 74 100 179 201 190 183 194 201 199 206 210 196 187 192 191 188 193 195 194 193 197 192 194 193 190 191 190 189 192 190 189 189 190 190 190 188 188 189 188 188 186 187
210 209 195 204 213 201 203 201 209 208 200 211 209 216 198 209 227 241 247 260 207 87 84 136 189 190 177 183 200 199 195 207 208 197 192 189 194 190 200 202 188 201 197 193 189 186 191 193 191 192 192 190 190 191 191 191 190 191 190 189 188 185 186
205 205 201 194 213 207 201 204 211 208 211 204 216 215 209 212 199 215 210 229 202 112 126 143 146 193 182 175 189 208 190 195 201 205 199 186 189 192 196 197 183 198 200 189 185 184 190 194 192 192 195 194 191 189 191 191 194 192 191 188 186 185 185
192 193 194 194 198 215 209 201 202 214 214 214 213 222 223 226 207 209 208 208 233 127 131 125 153 173 182 187 187 195 211 182 196 190 195 191 180 175 188 196 194 190 184 177 184 184 187 193 195 193 195 196 196 193 190 191 194 192 191 189 188 187 188
197 187 189 191 188 202 209 205 200 207 213 212 201 213 204 231 202 212 210 209 102 99 136 122 194 185 220 216 181 171 202 183 188 187 114 103 90 122 161 172 179 187 177 169 178 187 185 191 196 194 196 199 199 197 195 193 192 191 191 189 188 187 189
211 200 239 205 197 194 210 202 206 199 211 213 211 211 222 213 206 224 213 244 123 166 144 170 190 181 192 178 170 159 167 184 114 70 91 99 120 161 184 188 188 190 182 179 181 185 189 193 197 198 198 200 202 199 200 197 192 191 189 190 188 187 189
238 64 291 354 286 210 204 210 204 207 202 211 209 209 216 195 210 221 192 230 228 134 157 167 183 169 171 170 175 138 132 143 161 118 87 145 169 177 175 180 180 182 186 181 179 187 193 197 197 201 201 201 202 200 201 200 196 192 189 190 188 187 188
248 249 309 319 263 236 220 211 211 206 206 203 213 213 215 203 217 220 187 198 229 200 149 163 160 152 149 145 156 155 139 119 116 136 156 173 182 152 156 160 167 175 178 188 190 191 196 199 199 200 201 202 200 202 201 201 203 197 189 187 188 188 188
239 242 248 241 264 241 239 258 222 209 210 207 209 215 214 213 215 226 205 188 214 221 171 158 156 149 183 159 210 95 135 161 103 115 173 186 162 153 155 162 169 175 179 182 192 192 195 200 199 200 202 201 201 201 202 200 204 202 189 187 187 189 190
253 255 239 241 249 238 232 224 262 227 206 213 209 211 213 215 218 213 217 188 204 210 231 214 152 170 181 291 242 204 192 165 169 176 172 182 173 154 159 150 170 168 180 181 187 192 194 198 198 200 199 200 202 203 201 201 200 202 195 186 189 192 193
247 237 231 229 236 254 244 243 228 229 219 208 206 211 208 210 212 215 215 217 209 183 194 239 252 229 229 239 244 253 260 273 270 245 236 188 204 204 185 167 161 164 178 187 187 192 196 196 198 199 199 197 198 204 199 201 198 199 200 192 192 193 191
243 232 231 231 228 234 231 224 225 227 228 239 218 212 208 214 214 215 223 225 219 211 191 211 221 239 234 237 242 246 248 257 269 272 272 273 252 211 202 185 199 217 217 194 193 201 199 197 197 199 197 198 199 200 200 195 196 198 201 197 188 190 192
228 223 215 216 228 228 229 214 225 225 228 222 230 217 216 213 215 226 222 228 216 220 225 220 224 218 226 238 237 243 261 263 271 266 259 253 252 246 219 214 200 184 196 245 213 193 202 201 199 199 199 200 199 195 198 193 197 199 196 198 188 188 189
252 200 180 203 215 231 227 219 220 228 237 240 236 239 235 228 223 233 240 236 249 225 222 221 230 245 247 245 246 230 226 238 244 247 249 249 260 270 286 291 282 298 99 117 190 205 218 210 199 197 197 199 195 196 198 196 194 193 194 197 187 186 190
275 267 197 206 222 320 279 226 227 221 218 222 236 244 239 238 237 233 238 235 231 228 231 242 257 251 242 243 247 259 266 265 263 262 259 246 234 234 254 68 79 93 306 287 290 234 230 214 213 205 197 194 196 196 196 199 195 194 192 194 192 187 191
234 246 231 216 136 156 202 235 177 207 215 212 217 228 227 230 235 238 240 241 242 240 234 228 230 232 239 242 243 245 249 246 249 257 261 264 258 257 88 93 98 90 104 253 261 237 225 235 228 220 207 193 197 194 195 198 194 194 193 194 197 189 192
228 239 225 220 227 231 206 194 118 96 117 339 353 245 231 216 222 224 237 240 235 236 236 234 233 230 243 247 250 245 242 241 241 241 250 256 257 257 201 122 206 211 212 229 219 232 241 229 237 235 215 197 192 195 195 195 194 194 196 197 195 191 193
219 225 234 223 227 216 258 183 178 195 296 237 126 198 219 130 208 210 231 230 230 235 240 241 240 245 248 248 252 243 242 244 241 238 230 236 246 65 71 20 355 349 28 347 302 270 245 239 225 228 225 206 192 196 195 197 196 196 197 195 192 193 193
222 221 222 224 218 211 182 184 159 153 198 136 194 198 205 37 19 42 9 352 355 353 359 334 257 234 237 241 246 240 246 245 233 219 163 114 82 98 67 331 94 82 322 279 256 245 234 227 226 214 215 208 197 192 194 197 198 198 197 190 188 191 192
229 236 229 230 223 266 308 157 119 84 283 224 201 201 95 49 46 37 21 351 14 2 349 334 262 235 285 305 295 282 27 21 43 65 79 79 70 49 17 49 5 317 252 245 278 330 25 203 208 211 206 202 196 188 190 200 202 195 189 183 183 187 191
217 214 230 229 243 228 244 231 167 125 184 194 204 70 272 13 57 35 20 10 2 5 339 328 310 312 314 311 316 349 12 25 62 68 77 91 93 83 51 14 319 312 298 79 248 227 203 223 238 210 203 196 196 186 191 200 200 188 181 182 183 185 188
224 222 221 219 229 188 251 291 237 173 231 78 31 223 18 9 18 39 28 350 10 350 340 324 313 304 301 308 335 345 360 40 64 64 71 84 100 81 76 140 144 245 178 168 55 9 241 212 209 219 195 186 184 181 191 193 194 188 176 177 178 180 182
217 211 219 221 226 314 210 218 244 158 234 15 335 358 300 337 339 21 339 26 352 343 327 325 315 309 301 287 269 268 295 315 1 69 77 63 67 117 76 77 91 78 75 54 67 27 5 191 201 195 188 173 172 174 184 182 190 176 168 168 170 173 177
228 234 223 207 354 314 338 324 279 306 333 335 309 342 318 310 329 10 329 349 340 333 329 313 302 295 290 275 269 257 260 267 270 253 159 128 128 94 69 58 57 58 86 102 97 75 57 77 152 178 172 168 163 157 137 140 150 149 149 154 160 169 173
291 284 277 283 272 304 304 303 336 333 325 323 330 341 340 336 327 334 335 335 331 326 320 314 307 297 303 308 293 273 261 263 191 307 188 145 110 101 114 117 84 73 90 97 99 97 88 88 112 129 135 133 138 151 158 160 154 146 149 153 163 166 169
301 278 260 252 254 271 329 327 317 304 302 321 322 319 328 327 321 323 323 321 319 311 319 303 300 298 295 292 280 273 310 290 283 266 261 164 128 113 96 74 98 105 101 102 108 119 115 97 91 101 109 126 140 152 154 157 144 147 152 156 157 162 162
266 266 282 289 299 309 304 298 300 302 308 313 314 317 318 319 317 309 310 315 310 323 312 317 308 304 294 287 290 256 230 254 259 256 247 216 134 87 97 109 108 111 107 101 102 101 109 114 117 122 126 124 125 127 132 141 138 137 139 147 149 154 157
245 251 254 270 290 292 287 281 273 274 295 321 328 327 320 312 309 312 314 315 311 311 309 314 307 293 285 282 284 281 269 243 240 246 244 221 150 142 162 125 112 103 105 101 97 94 88 86 93 97 92 86 92 99 104 109 126 134 136 142 138 138 139
239 236 237 232 249 258 255 247 259 272 320 328 325 324 317 312 307 308 309 307 303 301 307 303 291 284 283 274 264 259 245 237 236 225 221 198 171 166 138 127 115 107 106 108 103 96 89 76 85 106 109 113 110 105 91 74 92 104 99 107 117 113 114
237 237 248 275 277 276 285 297 310 328 320 315 314 311 312 309 307 304 300 301 297 291 295 305 294 282 269 258 246 244 223 207 189 200 198 184 166 140 132 132 129 119 107 104 100 95 91 92 86 79 80 85 93 99 97 97 95 98 113 114 104 105 116
277 278 272 280 286 279 282 287 298 301 302 299 298 300 303 306 302 299 292 292 294 292 287 284 288 276 252 237 222 218 183 159 182 184 188 170 156 139 131 127 122 118 115 109 108 104 102 98 94 92 92 92 87 93 99 101 103 105 107 111 109 110 109
257 259 263 266 272 271 271 274 274 277 284 292 292 293 299 300 299 290 280 278 276 279 275 264 256 282 240 210 182 159 145 116 120 156 146 137 133 133 127 130 123 117 112 110 104 101 97 91 87 83 82 82 80 83 89 91 87 92 96 102 112 112 112